Location: Rounton
(54.4000°N, 1.3500°W)
Time: 14:15:56
(UTC+00:00)

Transit 2A - Pass Details

Date: 03 December 2021
Orbit: 591 x 967 km, 66.7° (Epoch: 17 January)

Event Time Altitude Azimuth Distance (km) Brightness Sun altitude
Rises 00:54:18 0° 211° (SSW) 3,343 - -55.8°
Reaches altitude 10° 00:56:38 10° 209° (SSW) 2,467 - -55.7°
Maximum altitude 01:02:23 73° 127° (SE) 950 - -55.3°
Drops below altitude 10° 01:08:39 10° 44° (NE) 2,679 - -54.9°
Exits shadow 01:10:03 - 43° (NE) 3,197 9.7 -54.8°
Sets 01:11:17 0° 42° (NE) 3,650 10.0 -54.7°
